Regional Weather Roundup
Issued by NWS

Home | Current Version | Previous Version | Text Only | Print | Product List | Glossary On
Versions: 1 2 3 4 5 6 7 8 9 10 11 12 13 14 15 16 17 18 19 20 21 22 23 24 25 26 27 28 29 30 31 32 33 34 35 36 37 38 39 40 41 42 43 44 45 46 47 48 49 50
443
ASUS44 KJAN 011310
RWRMS

MISSISSIPPI HOURLY WEATHER ROUNDUP
NATIONAL WEATHER SERVICE JACKSON MS
700 AM CST SUN MAR 01 2015

NOTE: "FAIR: INDICATES FEW OR NO CLOUDS BELOW 12,000 FEET WITH NO
SIGNIFICANT WEATHER AND/OR OBSTRUCTIONS TO VISIBILITY.

MSZ001>002-007>008-010>013-018>021-025>028-034>036-011400-
NORTHWEST MISSISSIPPI

CITY           SKY/WX    TMP DP  RH WIND       PRES   REMARKS
CLARKSDALE     CLOUDY    36  32  87 NW8       30.38R WCI  29
CLEVELAND      RAIN      36  35  96 N7        30.37R WCI  30
GREENWOOD        N/A    N/A N/A N/A MISG      30.33S
GREENVILLE     HVY RAIN  37  34  89 N7        30.35R FOG     WCI  32
OXFORD         CLOUDY    46  41  81 SE6       30.35S
TUNICA         CLOUDY    34  32  93 NW12      30.38R WCI  25
$$

MSZ003>006-009-014>017-022>024-029>033-037>039-011400-
NORTHEAST MISSISSIPPI

CITY           SKY/WX    TMP DP  RH WIND       PRES   REMARKS
COLUMBUS AFB   NOT AVBL
CORINTH        CLOUDY    46  39  76 CALM      30.34S
GOLDN TRIANGLE CLOUDY    48  46  93 SE9       30.36S FOG
STARKVILLE     CLOUDY    50  48  93 SE9       30.35F FOG
TUPELO         CLOUDY    49  44  83 SW5       30.36R
$$

MSZ040-058-011400-
CENTRAL MISSISSIPPI

CITY           SKY/WX    TMP DP  RH WIND       PRES   REMARKS
JACKSON INTL   CLOUDY    53  50  89 SE8       30.33R FOG
JACKSON HAWKNS CLOUDY    53  50  89 SE12      30.32R FOG
MERIDIAN KEY   CLOUDY    50  49  96 E8        30.35F
MERIDIAN NAS   CLOUDY    49  47  93 SE6       30.37S FOG
VICKSBURG      CLOUDY    48  43  82 CALM      30.32R
$$

MSZ059>079-011400-
SOUTH MISSISSIPPI

CITY           SKY/WX    TMP DP  RH WIND       PRES   REMARKS
BROOKHAVEN     CLOUDY    54  54 100 SE5       30.33S
HATTIESBURG    CLOUDY    53  51  93 SE6       30.36R FOG
MCCOMB         CLOUDY    55  53  93 SE7       30.31S FOG
NATCHEZ        CLOUDY    55  54  94 SE8       30.29S
PINE BELT      CLOUDY    52  48  87 SE6       30.36R
$$

MSZ080>082-011400-
COASTAL MISSISSIPPI

CITY           SKY/WX    TMP DP  RH WIND       PRES   REMARKS
BAY ST LOUIS   CLOUDY    54  50  87 E6        30.34  FOG
BILOXI         CLOUDY    53  53 100 E9        30.34R FOG
PASCAGOULA     FOG       51  50  96 E7        30.36S VSB 1
GULFPORT       FOG       53  52  96 E9        30.34R VSB 1
$$



USA.gov is the U.S. government's official web portal to all federal, state and local government web resources and services.